Regional Weather Roundup
Issued by NWS Pendleton, OR

Home | Current Version | Previous Version | Text Only | Print | Product List | Glossary On
Versions: 1 2 3 4 5 6 7 8 9 10 11 12 13 14 15 16 17 18 19 20 21 22 23 24 25 26 27 28 29 30 31 32 33 34 35 36 37 38 39 40 41 42 43 44 45 46 47 48 49 50
983
ASUS46 KPDT 231225
RWRPDT
PENDLETON REGIONAL WEATHER ROUNDUP
NATIONAL WEATHER SERVICE PENDLETON OREGON
500 AM PDT MON OCT 23 2017

NOTE: FAIR INDICATES FEW OR NO CLOUDS BELOW 12,000 FEET WITH NO
SIGNIFICANT WEATHER AND/OR OBSTRUCTIONS TO VISIBILITY.

# INDICATES UNOFFICIAL STATION AND DATA

WAZ520-231310-
EAST SLOPES OF WASHINGTON CASCADES

CITY            SKY/WX      TMP DP  RH  WIND    PRES   REMARKS
#BULLFROG       N/A         39  38  96  CALM    N/A
#CLE ELUM HS    N/A         35  34  96  CALM    30.51R
#CLE ELUM LAKE  N/A         38  36  92  CALM    30.57R
#EASTON DOT     N/A         38  38  100 CALM    N/A
#ELK HTS DOT    N/A         38  38  100 CALM    N/A
#GLENWOOD       N/A         32  31  96  CALM    30.59R
#NELSON 3SW     N/A         35  33  92  CALM    30.80R
#NILE           N/A         32  31  96  CALM    29.87S
#TEANAWAY 4NE   N/A         34  34  100 CALM    N/A
#TROUT LAKE 1NE N/A         37  36  96  CALM    30.60R
#TROUT LAKE 1E  N/A         32  31  96  CALM    30.60R
$$

WAZ521-231310-
SIMCOE HIGHLANDS

CITY            SKY/WX      TMP DP  RH  WIND    PRES   REMARKS
#BICKLETON HS   N/A         40  37  89  W2      30.49F
#SATUS PASS DOT N/A         35  34  96  NE2     N/A
#CENTERVILLE 1SWN/A         39  35  85  CALM    30.55R
#GOLDENDALE 4W  N/A         38  35  89  W6      30.58R
#GOODNOE HILLS  N/A         46  44  93  SE3     N/A
#LYLE 6NE       N/A         43  41  93  NE2     30.57R
#PITT 4SE       N/A         42  41  96  CALM    30.60R
$$

WAZ026-231310-
KITTITAS VALLEY

CITY            SKY/WX      TMP DP  RH  WIND    PRES   REMARKS
ELLENSBURG AP   PTCLDY      39  36  89  W7      30.55R
6HR MIN TEMP:   35; 6HR MAX TEMP:   47; 6HR PCP:  TRACE;

#ELLENSBURG CWU N/A         38  36  92  CALM    30.52R
#ELLENSBURG 3NE N/A         37  35  92  CALM    28.61R
#ELLENSBURG 1E  N/A         35  33  92  CALM    30.61R
#KITTITAS 3S    N/A         32  30  92  CALM    30.57R
#MANASTASH RDG  N/A         42  41  96  NW3     N/A
#ROCKY CYN DOT  N/A         38  37  96  W1      N/A
#RYEGRASS DOT   N/A         38  37  96  W20     N/A    WCI 28
$$

WAZ027-231310-
YAKIMA VALLEY

CITY            SKY/WX      TMP DP  RH  WIND    PRES   REMARKS
SUNNYSIDE AP    CLOUDY      38  37  96  CALM    30.56R
YAKIMA AIRPORT  PTCLDY      39  36  89  W6      30.57R
6HR MIN TEMP:   38; 6HR MAX TEMP:   51;

YAKIMA-VAGABOND MOCLDY      38  35  89  CALM    30.55R
6HR MIN TEMP:   36; 6HR MAX TEMP:   41; 6HR PCP:  0.09;

#GRANDVIEW      N/A         41  37  86  CALM    30.51R
#MABTON         N/A         47  41  79  CALM    30.54F
#MOXEE 2E       N/A         56  N/A N/A W8      30.17R
#NACHES 2SW     N/A         42  38  86  W7      30.55R
#OUTLOOK DOT    N/A         43  40  89  CALM    30.51F
#PARKER DOT     N/A         49  38  66  S10     30.54S
#TERRACE HTS    N/A         39  37  92  CALM    30.53R
#TOPPENISH      N/A         42  38  86  CALM    30.49R
#I82 S UMTANUM RN/A         41  36  82  SW1     N/A
#UNION GAP DOT  N/A         46  38  73  N7      30.59S
#W YAKIMA       N/A         41  37  86  N1      30.56S
#WHITE SWAN 5E  N/A         37  34  89  CALM    30.56S
#WILEY CITY 3W  N/A         37  30  75  CALM    30.52F
#ZILLAH DOT     N/A         39  N/A N/A CALM    N/A
$$

WAZ028-231310-
LOWER COLUMBIA BASIN...WASHINGTON

CITY            SKY/WX      TMP DP  RH  WIND    PRES   REMARKS
HANFORD         MOCLDY      48  38  68  E2      30.54R
6HR MIN TEMP:   44; 6HR MAX TEMP:   50;

PASCO           MOCLDY      44  41  89  CALM    30.56R
6HR MIN TEMP:   42; 6HR MAX TEMP:   52;

PROSSER AWOS    N/A         41  39  93  CALM    30.59R
RICHLAND AWOS   CLOUDY      46  42  86  E3      30.58R
#BENTON CITY    N/A         46  40  79  CALM    30.46R
#CONNELL 5N     N/A         42  38  86  CALM    30.55R
#CONNELL 5NW    N/A         40  37  89  CALM    30.50R
#ELTOPIA 6NW    N/A         45  41  86  CALM    29.50R
#KAHLOTUS       N/A         43  39  86  CALM    30.55R
#KENNEWICK 3S   N/A         47  42  83  CALM    30.56R
#PROSSER DOT    N/A         43  41  93  CALM    30.56R
#SAGEMOOR 2W    N/A         43  40  89  CALM    30.41S
#TOUCHET 2S     N/A         44  40  86  W1      30.55R
#WEST PASCO     N/A         42  38  86  CALM    30.59R
$$

WAZ029-231310-
FOOTHILLS OF THE BLUES...WASHINGTON

CITY            SKY/WX      TMP DP  RH  WIND    PRES   REMARKS
WALLA WALLA AP  PTCLDY      48  39  71  SE6     30.57R
6HR MIN TEMP:   48; 6HR MAX TEMP:   53;

#CLYDE 6NW      N/A         42  39  89  E2      30.54R
#DELANEY DOT    N/A         40  37  89  NW1     30.57R
#LOWDEN 2SE     N/A         43  39  86  CALM    30.54R
#PLEASANT VIEW 1N/A         42  39  89  S5      30.58R
#PRESCOTT       N/A         41  38  89  CALM    30.55R
#WHITMAN COLLEGEN/A         49  40  71  S3      30.61R
#WAITSBURG 6SSE N/A         46  38  73  E5      30.56R
#WAITSBURG 8N   N/A         41  N/A N/A S3      30.53F
#WALLA WALLA 5E N/A         51  42  71  SE5     N/A
#WHITMAN MISSIONN/A         44  40  86  CALM    30.58R
$$

WAZ030-231310-
BLUE MOUNTAINS...WASHINGTON

CITY            SKY/WX      TMP DP  RH  WIND    PRES   REMARKS
#DIXIE 5SE      N/A         46  38  73  S7      30.49R
$$

ORZ009-041-WAZ024-231310-
COLUMBIA RIVER GORGE

CITY            SKY/WX      TMP DP  RH  WIND    PRES   REMARKS
HOOD RIVER AP   CLEAR       41  41  100 S7      30.60R
THE DALLES AP   CLEAR       43  41  93  SW3     30.59R FOG
#ARLINGTON AIRPON/A         48  44  86  W2      30.57R
#CELILO DOT     N/A         49  41  74  CALM    N/A
#LYLE           N/A         47  44  89  NE2     30.60R
#MARYHILL       N/A         46  44  93  N6      N/A
#MURDOCK        N/A         46  44  93  CALM    30.56R
#RUFUS DOT      N/A         47  N/A N/A S8      N/A
#SMITHVILLE     N/A         43  41  93  N1      30.54R

$$

ORZ510-231310-
NORTH CENTRAL OREGON

CITY            SKY/WX      TMP DP  RH  WIND    PRES   REMARKS
#ANTELOPE       N/A         37  35  92  CALM    30.44R
#CHENOWITH 1W   N/A         44  41  89  W13     N/A    WCI 38
#COW CYN RST AREN/A         45  43  93  E1      N/A
#DUFUR          N/A         37  35  92  CALM    30.55R
#DUFUR 9E       N/A         48  40  74  CALM    30.60R
#GRASS VALLEY 1SN/A         39  36  89  S1      30.53S
#KENT DOT       N/A         40  34  79  SW6     N/A
#MAUPIN SCHOOL  N/A         42  39  89  CALM    30.62R
#MORO SCHOOL    N/A         39  39  100 CALM    30.53R
#SHANIKO 5WSW   N/A         42   5  21  SE7     N/A
#SHANIKO 4NW    N/A         43  39  86  S5      30.54S
#TYGH VALLEY 2NEN/A         40  37  89  CALM    30.56R
#WAPANITIA AIRPON/A         40  37  89  CALM    30.58S
#WASCO 5NE      N/A         42  34  73  CALM    30.56R
$$

ORZ511-231310-
CENTRAL OREGON

CITY            SKY/WX      TMP DP  RH  WIND    PRES   REMARKS
BEND AIRPORT    CLEAR       36  36  100 SW5     30.58S
MADRAS AIRPORT  CLEAR       N/A N/A N/A SE8     30.59S
PRINEVILLE AP   CLEAR       36  34  92  S3      30.58S
REDMOND AIRPORT CLEAR       30  26  85  CALM    30.57S
6HR MIN TEMP:   29; 6HR MAX TEMP:   41;

#ASHWOOD SCHOOL N/A         39  36  89  CALM    30.50S
#BEND 1SW       N/A         37  34  89  CALM    N/A
#BEND-AWBREY    N/A         40  37  89  CALM    30.55R
#BEND-KIM LN    N/A         34  32  92  CALM    30.51R
#CULVER         N/A         37  34  89  CALM    30.42R
#CULVER 8W      N/A         37  35  92  CALM    30.50S
#LAKE BILLY CHINN/A         41  N/A N/A CALM    30.61R
#MADRAS 4S      N/A         39  21  48  S3      N/A
#POWELL BUTTE   N/A         42  37  82  CALM    30.45S
#PRINEVILLE     N/A         39  35  85  CALM    30.64R
#PRINEVILLE 3N  N/A         37  34  89  NW2     30.57R
#WARM SPRINGS   N/A         39  37  92  CALM    30.45R

$$


ORZ509-231310-
EAST SLOPES OF OREGON CASCADES

CITY            SKY/WX      TMP DP  RH  WIND    PRES   REMARKS
SISTERS AWOS    N/A         32  30  92  CALM    N/A
#BLUE BOX PASS  N/A         40  N/A N/A CALM    N/A
#CAMP SHERMAN   N/A         33  30  89  CALM    30.65R
#LA PINE 4NW    N/A         29  26  88  CALM    30.60R
#LAVA BUTTE DOT N/A         37  36  96  SE1     N/A
#SISTERS ODOT   N/A         31  30  96  CALM    N/A
#SISTERS 3N     N/A         32  27  82  CALM    30.53S
#SUNRIVER       N/A         32  31  96  CALM    30.59R
#TUMALO 3W      N/A         40  35  82  W5      30.42R
#WANOGA BUTTE D N/A         39  30  70  CALM    N/A

$$

ORZ044-231310-
LOWER COLUMBIA BASIN...OREGON

CITY            SKY/WX      TMP DP  RH  WIND    PRES   REMARKS
HERMISTON       CLOUDY      44  42  93  E3      30.56R
6HR MIN TEMP:   42; 6HR MAX TEMP:   50;

#BOARDMAN SCHOOLN/A         47  43  86  NW1     30.55R
#ECHO 8SW       N/A         48  41  77  CALM    30.55R
#I-84 EX 198 DOTN/A         50  40  68  NE2     N/A
#IONE SCHOOL    N/A         44  26  49  CALM    30.58R
#UMATILLA       N/A         46  40  79  CALM    30.49S
$$

ORZ507-231310-
NORTHERN FOOTHILLS OF THE BLUES

CITY            SKY/WX      TMP DP  RH  WIND    PRES   REMARKS
PENDLETON AIRPT MOCLDY      44  38  79  SE8     30.56R
6HR MIN TEMP:   42; 6HR MAX TEMP:   51;

#ADAMS 3WNW     N/A         37  35  92  CALM    30.56R
#ATHENA         N/A         42  37  82  CALM    30.59R
#CAYUSE         N/A         46  40  79  E2      30.55R
#HELIX SCHOOL   N/A         37  34  89  CALM    30.56R
#HELIX 3N       N/A         41  37  86  S2      30.50R
#HOLDMAN 5SE    N/A         42  38  86  SE2     30.53R
#HOLDMAN 6E     N/A         43  38  82  CALM    30.36R
#M-F GROVE ELEM N/A         45  36  70  CALM    30.53R
#M-FREEWATER 5SEN/A         44  38  79  CALM    30.54R
#PENDLETON DNTN N/A         43  37  79  CALM    30.54R
#PDT AQUATIC CTRN/A         45  37  73  CALM    30.52S
#PDT SUNRIDGE   N/A         43  38  82  S1      30.59R
#PENDLETON 7NW  N/A         44  37  76  CALM    30.58R
#PILOT ROCK 1S  N/A         44  36  73  SE1     30.56R
#PILOT ROCK     N/A         45  38  76  CALM    30.56R
#TUTUILLA       N/A         42  37  82  CALM    30.61R
#UMAPINE 2E     N/A         45  38  76  CALM    30.55R
#WESTON SCHOOL  N/A         46  36  68  SW1     30.50R

$$

ORZ508-231310-
SOUTHERN FOOTHILLS OF THE BLUES

CITY            SKY/WX      TMP DP  RH  WIND    PRES   REMARKS
LEXINGTON       PTCLDY      46  39  76  SE6     30.59R
#AJAX           N/A         46  33  60  NW1     30.66R
#FOSSIL SCHOOL  N/A         38  36  92  CALM    30.46S
#HEPPNER EOC    N/A         44  38  79  SE1     30.49S
#HEPPNER 4NE    N/A         45  38  76  S2      30.54S
#LEXINGTON 2SE  N/A         47  40  76  CALM    30.52F
#MIKKALO        N/A         45  36  70  CALM    30.63R
#OLEX 4N        N/A         43  39  86  CALM    30.53R
#RUGGS 5NE      N/A         41  39  93  CALM    30.72S
#RUGGS 2SW      N/A         43  38  82  CALM    30.58R

$$

ORZ502-503-231310-
BLUE MOUNTAINS

CITY            SKY/WX      TMP DP  RH  WIND    PRES   REMARKS
MEACHAM         CLOUDY      36  35  96  CALM    30.57R
6HR MIN TEMP:   36; 6HR MAX TEMP:   39;

#BATTLE MTN DOT N/A         35  33  92  CALM    N/A
#GRANITE        N/A         34  32  92  CALM    30.54F
#GREENHORN 9SW  N/A         34  34  100 CALM    26.72R
#HEPPNER 15SE   N/A         37  34  89  CALM    30.52R
#LADD CYN SMT   N/A         34  33  96  SW6     N/A
#LADD CREEK ODOTN/A         37  35  92  S3      N/A
#LONG CREEK HS  N/A         36  36  100 CALM    30.57S
#N POWDER DOT   N/A         33  32  96  E1      N/A
#PIKES PEAK     N/A         44  36  73  S7      27.99S
#TOLLGATE       N/A         35  34  96  S3      30.34R
#TROY SCHOOL    N/A         40  37  89  CALM    30.45R
#UKIAH          N/A         30  29  96  CALM    30.52R
#WESTON 4E      N/A         42  36  79  SE1     30.54R
$$

ORZ505-231310-
JOHN DAY BASIN

CITY            SKY/WX      TMP DP  RH  WIND    PRES   REMARKS
JOHN DAY        CLEAR       39  37  92  E7      30.58R
#ANTELOPE 9ESE  N/A         41  39  93  S3      N/A
#DAYVILLE SCHOOLN/A         37  33  85  CALM    30.50S
#MITCHELL 8NW   N/A         46  35  65  SW1     30.59R
#MONUMENT HS    N/A         37  34  89  CALM    30.52R
#SPRAY SCHOOL   N/A         39  N/A N/A N1      N/A
$$

ORZ506-231310-
OCHOCO AND JOHN DAY HIGHLANDS

CITY            SKY/WX      TMP DP  RH  WIND    PRES   REMARKS
#HORSE RIDGE DO N/A         28  26  92  CALM    N/A
#PAULINA ODOT   N/A         33  32  96  NE2     N/A
#PINE MTN OBS   N/A         39  30  70  CALM    N/A
#PRAIRIE CITY   N/A         34  32  92  CALM    30.72S
#SENECA         N/A         30  N/A N/A CALM    N/A
#SENECA 9NW     N/A         28  27  96  CALM    30.60R
$$

ORZ049-231310-
GRANDE RONDE VALLEY

CITY            SKY/WX      TMP DP  RH  WIND    PRES   REMARKS
LA GRANDE       CLOUDY      40  37  89  CALM    30.59R
#COVE           N/A         41  40  96  NE1     30.57R
#COVE SCHOOL    N/A         41  39  93  CALM    30.55R
#COVE 6NW       N/A         39  37  92  CALM    30.59R
#ELGIN 3N       N/A         34  31  89  CALM    30.96R
#ELGIN 1E       N/A         36  31  82  CALM    N/A
#IMBLER SCHOOL  N/A         37  35  92  CALM    30.51R
#ISLAND CITY 4N N/A         44  43  96  CALM    30.58R
#UNION 1S       N/A         41  39  93  CALM    30.59R
$$

ORZ050-231310-
WALLOWA COUNTY

CITY            SKY/WX      TMP DP  RH  WIND    PRES   REMARKS
JOSEPH AIRPORT  CLEAR       34  34  100 CALM    30.59R
#ENTERPRISE HS  N/A         31  29  92  CALM    30.49R
#IMNAHA SCHOOL  N/A         39  37  92  SE1     30.57R
#JOSEPH         N/A         35  33  92  CALM    30.95R
#JOSEPH 3N      N/A         30  26  85  CALM    30.54R
#JOSEPH 3W      N/A         34  34  100 SW1     30.94R
#LOSTINE        N/A         33  30  89  CALM    30.41R
#LOSTINE 3SE    N/A         31  29  92  CALM    30.62R
#MT HOWARD 8000 N/A         28  24  85  CALM    30.52R
#PROMISE 1S     N/A         36  33  89  S1      30.68R
#WALLOWA LAKE   N/A         32  31  96  CALM    30.59R
#WALLOWA SCHOOL N/A         34  32  92  CALM    30.52R



$$



USA.gov is the U.S. government's official web portal to all federal, state and local government web resources and services.